1507989600.38,12910,14.63,74608.3,8.51,-22.77,-23.13,0,*79
1507989601.62,12911,14.69,74608.5,8.51,-22.53,-22.97,0,*73
1507989602.89,12912,14.69,74608.8,8.51,-23.19,-23.65,0,*73
1507989604.13,12913,14.69,74606.3,8.51,-23.33,-23.79,0,*77
1507989605.39,12914,14.69,74608.8,8.51,-23.43,-23.85,0,*74
1507989606.64,12915,14.69,74610.3,8.51,-23.79,-24.25,0,*71
1507989607.87,12916,14.69,74614.5,8.49,-24.15,-24.77,0,*71
1507989609.1,12917,14.69,74610.0,8.49,-24.61,-25.45,0,*73
1507989610.32,12918,14.63,74606.3,8.49,-24.67,-25.19,0,*73
1507989611.55,12919,14.63,74608.8,8.45,-23.95,-24.51,0,*79
1507989612.8,12920,14.69,74606.5,8.45,-24.71,-25.09,0,*72
1507989614.02,12921,14.63,74602.5,8.45,-23.95,-24.35,0,*70
1507989615.28,12922,14.69,74604.3,8.45,-23.29,-23.69,0,*7A
1507989616.53,12923,14.69,74602.3,8.41,-23.79,-24.21,0,*71
1507989617.81,12924,14.63,74602.8,8.41,-24.21,-24.67,0,*7E
1507989619.03,12925,14.63,74602.0,8.39,-24.15,-24.61,0,*71
1507989620.24,12926,14.69,74604.3,8.41,-23.39,-23.79,0,*7A
1507989621.51,12927,14.69,74608.3,8.41,-23.23,-23.65,0,*7D
1507989622.76,12928,14.69,74608.8,8.41,-23.65,-24.05,0,*71
1507989623.98,12929,14.69,74608.0,8.45,-24.51,-25.09,0,*79
1507989625.18,12930,14.69,74610.8,8.39,-24.35,-24.77,0,*70
1507989626.43,12931,14.69,74606.5,8.41,-23.49,-23.79,0,*7B
1507989627.62,12932,14.69,74612.8,8.39,-24.05,-24.61,0,*76
1507989628.86,12933,14.69,74612.3,8.39,-24.15,-24.67,0,*70
1507989630.07,12934,14.69,74608.0,8.35,-23.43,-23.75,0,*7B
1507989631.29,12935,14.69,74610.3,8.39,-24.15,-24.61,0,*70
1507989632.47,12936,14.63,74606.8,8.39,-24.93,-25.35,0,*7D
1507989633.68,12937,14.69,74610.8,8.35,-24.47,-24.77,0,*7E
1507989634.93,12938,14.69,74608.0,8.33,-24.31,-24.87,0,*79
1507989636.19,12939,14.69,74610.0,8.33,-24.25,-24.61,0,*75
1507989637.44,12940,14.69,74608.0,8.33,-24.11,-24.47,0,*78
1507989638.66,12941,14.69,74616.3,8.31,-23.65,-24.05,0,*79
1507989639.88,12942,14.69,74608.8,8.31,-24.15,-24.61,0,*78
1507989641.1,12943,14.69,74610.0,8.31,-23.33,-23.75,0,*78
1507989642.32,12944,14.69,74612.8,8.31,-23.59,-23.95,0,*7D
1507989643.52,12945,14.69,74614.0,8.31,-23.13,-23.43,0,*79
1507989644.71,12946,14.69,74608.8,8.31,-23.43,-23.89,0,*79
1507989645.94,12947,14.69,74612.3,8.33,-23.13,-23.43,0,*79
1507989647.17,12948,14.69,74614.0,8.33,-23.09,-23.43,0,*7D
1507989648.42,12949,14.69,74612.0,8.33,-23.43,-23.65,0,*76
1507989649.68,12950,14.69,74608.5,8.33,-23.65,-24.11,0,*7E
1507989650.95,12951,14.69,74610.5,8.33,-23.65,-23.95,0,*74
1507989652.22,12952,14.69,74608.8,8.33,-23.65,-23.95,0,*77
1507989653.46,12953,14.69,74608.0,8.33,-23.43,-23.65,0,*7D
1507989654.71,12954,14.69,74608.5,8.33,-22.97,-23.29,0,*7A
1507989655.93,12955,14.69,74604.8,8.33,-23.59,-23.89,0,*72
1507989657.18,12956,14.69,74606.5,8.33,-23.49,-23.75,0,*73
1507989658.43,12957,14.69,74608.5,8.33,-22.93,-23.29,0,*7D
1507989659.67,12958,14.69,74610.0,8.35,-22.73,-23.03,0,*72
1507989660.87,12959,14.69,74610.3,8.35,-23.39,-23.59,0,*73
1507989662.09,12960,14.69,74610.0,8.33,-23.43,-23.59,0,*72
1507989663.31,12961,14.69,74610.0,8.35,-23.13,-23.29,0,*77
1507989664.58,12962,14.69,74608.8,8.33,-23.19,-23.49,0,*7E
1507989665.81,12963,14.69,74610.5,8.35,-23.09,-23.29,0,*7E
1507989667.06,12964,14.69,74608.3,8.35,-23.03,-23.23,0,*79
1507989668.26,12965,14.69,74612.5,8.35,-23.39,-23.43,0,*77
1507989669.49,12966,14.69,74614.3,8.35,-22.77,-23.09,0,*71
1507989670.69,12967,14.69,74608.5,8.35,-23.13,-23.39,0,*70
1507989671.92,12968,14.69,74608.3,8.33,-22.93,-23.09,0,*73
1507989673.16,12969,14.69,74612.0,8.39,-23.03,-23.33,0,*79
1507989674.39,12970,14.69,74608.5,8.35,-22.77,-22.93,0,*74
1507989675.62,12971,14.69,74610.8,8.35,-23.09,-23.29,0,*7D
1507989676.81,12972,14.69,74608.0,8.39,-22.67,-22.97,0,*7F
1507989678.01,12973,14.69,74608.3,8.39,-22.53,-22.83,0,*7C
1507989679.24,12974,14.69,74608.8,8.39,-22.97,-23.33,0,*79
1507989680.43,12975,14.69,74608.5,8.39,-22.41,-22.83,0,*79
1507989681.65,12976,14.69,74610.5,8.41,-23.09,-23.39,0,*78
1507989682.88,12977,14.69,74610.5,8.41,-22.67,-22.87,0,*74
1507989684.12,12978,14.69,74606.8,8.41,-23.39,-23.65,0,*7C
1507989685.39,12979,14.69,74610.3,8.41,-23.33,-23.53,0,*72
1507989686.64,12980,14.69,74608.5,8.41,-23.03,-23.39,0,*7B
1507989687.88,12981,14.69,74606.3,8.39,-23.23,-23.53,0,*7B
1507989689.12,12982,14.69,74604.3,8.39,-23.49,-23.69,0,*7D
1507989690.37,12983,14.69,74606.5,8.41,-22.73,-23.09,0,*7D
1507989691.56,12984,14.69,74608.3,8.39,-22.67,-22.87,0,*77
1507989692.79,12985,14.69,74608.5,8.41,-23.09,-23.39,0,*74
1507989694.03,12986,14.69,74608.8,8.41,-23.39,-23.65,0,*7D
1507989695.3,12987,14.69,74608.8,8.41,-23.19,-23.49,0,*70
1507989696.52,12988,14.69,74612.5,8.39,-22.67,-23.03,0,*76
1507989697.8,12989,14.69,74610.5,8.41,-23.03,-23.33,0,*78
1507989699.05,12990,14.69,74606.0,8.41,-22.87,-23.19,0,*75
1507989700.32,12991,14.69,74606.5,8.41,-23.19,-23.49,0,*77
1507989701.52,12992,14.69,74606.8,8.39,-22.67,-22.97,0,*71
1507989702.77,12993,14.69,74612.0,8.41,-22.97,-23.33,0,*7F
1507989703.99,12994,14.69,74604.0,8.39,-23.19,-23.39,0,*7A
1507989705.24,12995,14.69,74602.5,8.41,-22.83,-23.19,0,*74
1507989706.5,12996,14.69,74604.0,8.41,-23.09,-23.33,0,*7C
1507989707.75,12997,14.69,74604.3,8.41,-22.97,-23.23,0,*7A
1507989708.97,12998,14.69,74606.8,8.41,-22.41,-22.83,0,*75
1507989710.23,12999,14.69,74606.5,8.41,-22.87,-23.23,0,*75
1507989711.48,13000,14.69,74604.3,8.41,-22.83,-23.19,0,*70
1507989712.73,13001,14.69,74608.8,8.41,-22.97,-23.23,0,*7D
1507989713.98,13002,14.69,74606.5,8.41,-23.39,-23.53,0,*7C
1507989715.17,13003,14.69,74606.5,8.39,-22.83,-23.09,0,*7D
1507989716.42,13004,14.69,74604.3,8.39,-23.19,-23.53,0,*77
1507989717.64,13005,14.69,74606.5,8.39,-22.73,-22.97,0,*72
1507989718.83,13006,14.69,74606.8,8.39,-22.67,-22.83,0,*71
1507989720.05,13007,14.69,74604.5,8.39,-22.87,-23.19,0,*7C
1507989721.24,13008,14.69,74604.0,8.39,-22.37,-22.67,0,*70
1507989722.49,13009,14.69,74608.0,8.41,-23.19,-23.39,0,*79
1507989723.77,13010,14.69,74606.0,8.41,-23.49,-23.65,0,*7D
1507989725.01,13011,14.69,74608.8,8.41,-23.39,-23.49,0,*75
1507989726.23,13012,14.69,74612.0,8.39,-23.03,-23.39,0,*77
1507989727.44,13013,14.69,74606.5,8.39,-23.39,-23.65,0,*76
1507989728.68,13014,14.69,74610.8,8.39,-23.33,-23.65,0,*7B
1507989729.9,13015,14.69,74610.8,8.39,-23.49,-23.79,0,*7A
1507989731.1,13016,14.69,74610.0,8.35,-23.09,-23.39,0,*75
1507989732.34,13017,14.69,74610.3,8.35,-23.29,-23.69,0,*73
1507989733.57,13018,14.69,74608.0,8.35,-23.59,-23.85,0,*79
1507989734.79,13019,14.69,74608.8,8.35,-23.29,-23.59,0,*7E
1507989736.01,13020,14.69,74610.5,8.35,-23.23,-23.43,0,*75
1507989737.21,13021,14.69,74610.0,8.35,-23.59,-23.89,0,*7F
1507989738.45,13022,14.69,74606.8,8.33,-23.65,-23.89,0,*75
1507989739.72,13023,14.69,74610.8,8.33,-23.33,-23.65,0,*75
1507989740.99,13024,14.69,74610.0,8.33,-23.65,-23.95,0,*7E
1507989742.21,13025,14.69,74606.3,8.31,-23.19,-23.43,0,*7D
1507989743.41,13026,14.69,74610.0,8.31,-23.75,-24.05,0,*71
1507989744.63,13027,14.69,74606.3,8.31,-23.75,-23.95,0,*7E
1507989745.91,13028,14.69,74610.5,8.29,-23.65,-23.85,0,*78
1507989747.19,13029,14.69,74604.5,8.29,-23.95,-24.25,0,*7B
1507989748.43,13030,14.69,74606.5,8.29,-23.39,-23.65,0,*76
1507989749.67,13031,14.69,74608.8,8.29,-23.39,-23.53,0,*72
1507989750.94,13032,14.69,74608.3,8.29,-23.65,-23.85,0,*73
1507989752.17,13033,14.69,74606.0,8.27,-23.53,-23.79,0,*7A
1507989753.39,13034,14.69,74600.0,8.27,-22.83,-23.19,0,*77
1507989754.57,13035,14.69,74604.8,8.27,-23.39,-23.79,0,*70
1507989755.82,13036,14.69,74600.5,8.27,-23.49,-23.85,0,*77
1507989757.02,13037,14.69,74606.8,8.27,-23.13,-23.39,0,*7E
1507989758.21,13038,14.69,74606.8,8.27,-22.67,-22.87,0,*77
1507989759.43,13039,14.69,74602.5,8.27,-23.23,-23.39,0,*73
1507989760.67,13040,14.69,74604.0,8.27,-23.49,-23.69,0,*74
1507989761.94,13041,14.69,74600.8,8.25,-23.29,-23.53,0,*78
1507989763.18,13042,14.69,74604.8,8.25,-23.43,-23.69,0,*7E
1507989764.43,13043,14.69,74604.5,8.25,-23.23,-23.43,0,*71
1507989765.7,13044,14.69,74604.5,8.25,-23.29,-23.99,0,*7B
1507989766.95,13045,14.69,74604.0,8.25,-23.85,-24.05,0,*7E
1507989768.17,13046,14.69,74602.3,8.25,-23.59,-23.75,0,*7C
1507989769.43,13047,14.69,74606.8,8.25,-23.23,-23.43,0,*75
1507989770.66,13048,14.69,74606.8,8.25,-23.39,-23.69,0,*79
1507989771.91,13049,14.69,74600.0,8.23,-24.11,-24.41,0,*7E
1507989773.11,13050,14.69,74596.3,8.23,-24.05,-24.31,0,*74
1507989774.36,13051,14.69,74600.5,8.21,-24.71,-25.19,0,*7F
1507989775.59,13052,14.69,74600.0,8.21,-23.59,-24.05,0,*7D
1507989776.84,13053,14.69,74600.3,8.21,-24.41,-24.77,0,*77
1507989778.09,13054,14.69,74600.3,8.19,-23.03,-23.33,0,*7D
1507989779.34,13055,14.69,74600.3,8.19,-23.33,-23.49,0,*72
1507989780.59,13056,14.69,74604.5,8.19,-23.29,-23.65,0,*74
1507989781.81,13057,14.69,74602.5,8.19,-24.15,-24.51,0,*7D
1507989783.05,13058,14.69,74600.8,8.17,-24.61,-25.13,0,*78
1507989784.26,13059,14.69,74602.3,8.15,-23.69,-23.89,0,*71
1507989785.45,13060,14.69,74602.8,8.15,-23.43,-23.89,0,*73
1507989786.67,13061,14.69,74602.8,8.15,-23.19,-23.59,0,*70
1507989787.9,13062,14.69,74604.3,8.15,-22.77,-23.09,0,*7F
1507989789.09,13063,14.69,74606.3,8.15,-23.59,-23.89,0,*7B
1507989790.32,13064,14.69,74600.8,8.15,-23.53,-23.75,0,*75
1507989791.57,13065,14.69,74602.3,8.11,-23.13,-23.49,0,*7B
1507989792.81,13066,14.69,74600.3,8.15,-23.53,-23.69,0,*7A
1507989794.0,13067,14.69,74600.8,8.15,-23.39,-23.75,0,*7A
1507989795.22,13068,14.69,74602.8,8.11,-23.59,-23.89,0,*74
1507989796.47,13069,14.69,74610.0,8.15,-23.33,-23.69,0,*73
1507989797.69,13070,14.69,74604.3,8.11,-23.75,-24.05,0,*70
1507989798.92,13071,14.69,74602.5,8.11,-23.75,-24.05,0,*71
1507989800.15,13072,14.69,74604.0,8.11,-23.79,-24.05,0,*7E
1507989801.39,13073,14.69,74604.0,8.11,-23.49,-23.79,0,*70
1507989802.62,13074,14.69,74600.3,8.11,-23.13,-23.59,0,*7A
1507989803.84,13075,14.69,74600.0,8.15,-23.59,-23.85,0,*70
1507989805.06,13076,14.69,74600.3,8.11,-23.79,-24.05,0,*7A
1507989806.31,13077,14.69,74604.0,8.11,-23.59,-23.95,0,*77
1507989807.53,13078,14.69,74604.0,8.11,-23.59,-23.89,0,*75
1507989808.72,13079,14.69,74604.5,8.09,-23.39,-23.59,0,*76
1507989809.94,13080,14.69,74610.5,8.09,-23.39,-23.49,0,*71
1507989811.17,13081,14.69,74606.3,8.09,-23.89,-24.21,0,*72
1507989812.38,13082,14.69,74604.5,8.09,-23.43,-23.79,0,*7D
1507989813.62,13083,14.69,74606.3,8.07,-23.79,-23.99,0,*75
1507989814.85,13084,14.69,74606.8,8.09,-23.43,-23.65,0,*76
1507989816.12,13085,14.69,74604.5,8.07,-23.03,-23.49,0,*73
1507989817.37,13086,14.69,74606.8,8.07,-23.19,-23.43,0,*71
1507989818.57,13087,14.69,74604.3,8.09,-23.09,-23.39,0,*72
1507989819.84,13088,14.69,74604.0,8.07,-23.95,-24.15,0,*7F
1507989821.04,13089,14.69,74606.8,8.09,-23.75,-24.05,0,*7F
1507989822.3,13090,14.69,74604.0,8.07,-23.65,-23.95,0,*76
1507989823.55,13091,14.69,74610.8,8.07,-23.43,-23.65,0,*7C
1507989824.82,13092,14.69,74604.0,8.07,-23.33,-23.69,0,*74
1507989826.08,13093,14.69,74602.8,8.07,-23.69,-23.99,0,*75
1507989827.33,13094,14.69,74606.8,8.07,-22.97,-23.19,0,*7A
1507989828.59,13095,14.69,74600.0,8.07,-23.65,-23.95,0,*73
1507989829.86,13096,14.69,74606.5,8.03,-23.23,-23.53,0,*7C
1507989831.08,13097,14.69,74610.5,8.05,-23.33,-23.59,0,*70
1507989832.33,13098,14.69,74604.5,8.07,-23.49,-23.79,0,*72
1507989833.55,13099,14.69,74604.3,8.05,-23.49,-23.75,0,*7D
1507989834.74,13100,14.69,74602.5,8.05,-23.39,-23.75,0,*7B
1507989836.02,13101,14.69,74602.0,8.03,-23.03,-23.33,0,*77
1507989837.27,13102,14.69,74606.0,8.03,-23.49,-23.75,0,*78
1507989838.5,13103,14.69,74600.5,8.05,-23.53,-23.75,0,*74
1507989839.76,13104,14.69,74602.5,8.03,-22.93,-23.23,0,*7B
1507989841.01,13105,14.69,74604.8,8.05,-23.49,-23.85,0,*76
1507989842.28,13106,14.69,74600.0,8.03,-23.19,-23.53,0,*7D
1507989843.51,13107,14.69,74600.8,8.05,-22.73,-22.93,0,*7A
1507989844.77,13108,14.69,74600.8,8.03,-22.93,-23.23,0,*77
1507989846.01,13109,14.69,74600.3,8.05,-23.23,-23.69,0,*74
1507989847.25,13110,14.69,74598.3,8.05,-23.33,-23.69,0,*7D
1507989848.53,13111,14.69,74604.3,8.03,-23.19,-23.53,0,*7B
1507989849.78,13112,14.69,74600.8,8.03,-23.09,-23.33,0,*7F
1507989851.05,13113,14.69,74600.5,8.03,-23.23,-23.53,0,*70
1507989852.3,13114,14.69,74606.5,8.03,-23.33,-23.75,0,*72
1507989853.55,13115,14.69,74604.3,8.03,-23.69,-23.89,0,*7F
1507989854.8,13116,14.69,74602.8,8.03,-23.19,-23.59,0,*76
1507989856.05,13117,14.69,74604.0,8.05,-23.53,-23.85,0,*7E
1507989857.3,13118,14.69,74606.8,8.03,-23.49,-23.75,0,*73
1507989858.58,13119,14.69,74602.8,8.03,-23.19,-23.49,0,*78
1507989859.83,13120,14.69,74608.0,8.03,-23.23,-23.75,0,*74
1507989861.03,13121,14.69,74606.3,8.01,-23.39,-23.75,0,*7C
1507989862.27,13122,14.69,74604.0,8.01,-23.23,-23.53,0,*70
1507989863.52,13123,14.69,74604.8,8.01,-23.29,-23.65,0,*7E
1507989864.77,13124,14.69,74604.5,7.99,-23.43,-23.69,0,*77
1507989865.97,13125,14.69,74604.3,8.01,-23.79,-24.05,0,*7C
1507989867.22,13126,14.69,74602.3,7.99,-23.13,-23.29,0,*74
1507989868.45,13127,14.69,74602.8,7.99,-22.97,-23.13,0,*71
1507989869.69,13128,14.69,74604.0,7.99,-22.97,-23.29,0,*77
1507989870.97,13129,14.69,74606.3,7.99,-23.19,-23.49,0,*77
1507989872.24,13130,14.69,74602.8,7.99,-23.19,-23.49,0,*7F
1507989873.47,13131,14.69,74600.0,8.01,-23.79,-24.11,0,*7C
1507989874.7,13132,14.69,74602.5,7.99,-22.57,-22.87,0,*75
1507989875.92,13133,14.69,74600.0,8.01,-22.93,-23.29,0,*77
1507989877.2,13134,14.69,74596.8,7.99,-23.03,-23.19,0,*75
1507989878.45,13135,14.69,74600.8,7.99,-22.47,-22.57,0,*7E
1507989879.7,13136,14.69,74600.3,8.01,-22.31,-22.77,0,*70
1507989880.91,13137,14.69,74604.8,8.01,-22.63,-22.93,0,*7C
1507989882.11,13138,14.69,74602.3,8.01,-23.09,-23.39,0,*7F
1507989883.31,13139,14.69,74600.8,8.01,-22.83,-23.09,0,*7E
1507989884.59,13140,14.69,74600.3,7.99,-23.49,-23.85,0,*7D
1507989885.81,13141,14.69,74602.3,8.01,-23.65,-24.05,0,*73
1507989887.07,13142,14.69,74596.3,8.01,-24.11,-24.71,0,*77
1507989888.34,13143,14.69,74600.8,7.99,-23.33,-23.65,0,*7D
1507989889.61,13144,14.69,74596.5,7.99,-22.73,-23.03,0,*7F
1507989890.84,13145,14.69,74604.3,7.99,-22.53,-22.87,0,*71
1507989892.09,13146,14.69,74606.3,7.99,-22.31,-22.53,0,*7F
1507989893.32,13147,14.69,74602.8,7.99,-22.53,-22.93,0,*76
1507989894.55,13148,14.69,74602.0,8.01,-22.31,-22.67,0,*78
1507989895.76,13149,14.69,74602.5,8.01,-23.13,-23.43,0,*7F
1507989896.97,13150,14.69,74602.0,8.01,-22.53,-22.93,0,*7E
1507989898.17,13151,14.69,74604.0,8.01,-23.13,-23.43,0,*76
1507989899.41,13152,14.69,74604.0,8.01,-22.77,-22.97,0,*7E
1507989900.61,13153,14.69,74600.8,8.01,-22.67,-22.97,0,*7E
1507989901.84,13154,14.69,74600.8,8.01,-22.97,-23.23,0,*78
1507989903.07,13155,14.69,74602.3,8.01,-22.83,-23.23,0,*7C
1507989904.33,13156,14.69,74602.0,7.99,-23.03,-23.43,0,*7E
1507989905.6,13157,14.69,74602.8,7.99,-22.73,-23.19,0,*76
1507989906.85,13158,14.69,74606.3,7.99,-22.73,-23.09,0,*78
1507989908.1,13159,14.69,74602.0,7.99,-23.19,-23.59,0,*71
1507989909.36,13160,14.69,74598.3,8.01,-22.47,-22.77,0,*72
1507989910.58,13161,14.69,74606.0,8.01,-22.83,-23.29,0,*71
1507989911.78,13162,14.69,74602.8,8.01,-22.67,-22.97,0,*7C
1507989913.03,13163,14.69,74600.0,8.01,-23.23,-23.65,0,*70
1507989914.23,13164,14.69,74606.0,8.01,-22.53,-22.93,0,*79
1507989915.43,13165,14.69,74604.5,8.01,-22.41,-22.67,0,*70
1507989916.67,13166,14.69,74602.8,8.01,-22.47,-22.93,0,*7E
1507989917.9,13167,14.69,74606.0,8.03,-22.57,-22.93,0,*7C
1507989919.13,13168,14.69,74602.0,8.01,-23.13,-23.53,0,*7D
1507989920.36,13169,14.69,74600.5,8.01,-22.77,-23.13,0,*7B
1507989921.59,13170,14.69,74602.3,8.01,-22.47,-22.97,0,*7D
1507989922.79,13171,14.69,74602.8,8.01,-23.43,-23.89,0,*77
1507989923.99,13172,14.69,74598.8,8.01,-22.93,-23.39,0,*73
1507989925.25,13173,14.69,74600.0,8.01,-22.77,-23.03,0,*71
1507989926.48,13174,14.69,74602.3,8.01,-22.77,-23.13,0,*77
1507989927.71,13175,14.69,74602.5,8.01,-23.23,-23.75,0,*76
1507989928.94,13176,14.69,74602.0,8.01,-22.83,-23.23,0,*7D
1507989930.17,13177,14.69,74600.5,8.01,-22.47,-22.67,0,*75
1507989931.45,13178,14.69,74602.5,7.99,-22.31,-22.47,0,*77
1507989932.65,13179,14.69,74606.5,8.01,-23.13,-23.43,0,*7C
1507989933.89,13180,14.69,74602.5,8.01,-23.75,-24.21,0,*79
1507989935.11,13181,14.69,74600.8,8.01,-23.53,-23.89,0,*79
1507989936.36,13182,14.69,74602.0,7.99,-22.97,-23.33,0,*7C
1507989937.61,13183,14.75,74604.3,7.99,-23.29,-23.79,0,*77
1507989938.88,13184,14.69,74600.8,7.99,-23.29,-23.65,0,*7D
1507989940.13,13185,14.69,74600.8,7.99,-22.97,-23.33,0,*7B
1507989941.4,13186,14.69,74606.3,7.99,-22.73,-23.03,0,*71
1507989942.66,13187,14.69,74604.8,7.99,-22.21,-22.53,0,*73
1507989943.91,13188,14.69,74600.5,7.99,-22.31,-22.57,0,*79
1507989945.18,13189,14.69,74600.0,7.99,-22.73,-23.19,0,*75
1507989946.41,13190,14.69,74602.5,8.01,-22.87,-23.19,0,*78
1507989947.64,13191,14.69,74602.5,8.01,-22.47,-22.83,0,*77
1507989948.88,13192,14.69,74602.3,7.99,-22.87,-23.29,0,*77
1507989950.1,13193,14.69,74602.0,7.99,-22.67,-23.13,0,*71
1507989951.35,13194,14.69,74600.8,7.99,-22.47,-22.83,0,*7C
1507989952.58,13195,14.69,74602.8,7.99,-22.37,-22.87,0,*7E
1507989953.86,13196,14.69,74600.8,7.99,-22.17,-22.47,0,*73
1507989955.06,13197,14.69,74602.0,8.01,-22.11,-22.53,0,*7F
1507989956.26,13198,14.69,74602.5,8.01,-22.41,-22.83,0,*78
1507989957.5,13199,14.69,74602.0,8.01,-22.47,-23.09,0,*7C
1507989958.75,13200,14.69,74602.8,7.99,-22.21,-22.53,0,*7F
1507989959.98,13201,14.69,74600.8,7.99,-22.57,-22.97,0,*77
1507989961.21,13202,14.69,74602.3,8.01,-22.47,-22.93,0,*7F
1507989962.41,13203,14.69,74602.0,8.01,-22.63,-23.13,0,*71
1507989963.64,13204,14.69,74600.3,7.99,-22.53,-22.97,0,*76
1507989964.87,13205,14.69,74600.3,7.99,-22.57,-22.97,0,*73
1507989966.1,13206,14.69,74606.5,8.01,-22.27,-22.77,0,*77
1507989967.33,13207,14.69,74600.5,8.01,-22.97,-23.53,0,*7A
1507989968.54,13208,14.75,74606.5,8.01,-22.53,-22.97,0,*74
1507989969.76,13209,14.69,74604.3,8.01,-22.03,-22.31,0,*7C
1507989970.96,13210,14.75,74608.5,8.01,-22.41,-22.97,0,*7E
1507989972.19,13211,14.69,74602.5,8.01,-22.77,-23.13,0,*77
1507989973.45,13212,14.69,74604.0,8.01,-21.97,-22.31,0,*78
1507989974.64,13213,14.69,74602.5,8.05,-22.07,-22.37,0,*71
1507989975.89,13214,14.69,74602.3,8.03,-22.37,-22.77,0,*77
1507989977.12,13215,14.69,74600.5,8.03,-22.37,-22.87,0,*79
1507989978.35,13216,14.69,74604.5,8.05,-22.57,-23.03,0,*77
1507989979.6,13217,14.69,74604.0,8.03,-22.93,-23.49,0,*76
1507989980.85,13218,14.69,74602.8,8.03,-22.87,-23.33,0,*71
1507989982.1,13219,14.69,74598.8,8.03,-21.93,-22.21,0,*74
1507989983.31,13220,14.69,74600.5,8.05,-22.57,-23.09,0,*78
1507989984.59,13221,14.69,74602.3,8.03,-22.21,-22.77,0,*76
1507989985.81,13222,14.69,74602.3,8.03,-22.63,-23.09,0,*7B
1507989987.04,13223,14.69,74602.5,8.05,-23.19,-23.75,0,*7B
1507989988.3,13224,14.69,74600.3,8.03,-22.47,-22.97,0,*7D
1507989989.52,13225,14.69,74602.8,8.01,-23.09,-23.53,0,*7C
1507989990.73,13226,14.69,74602.0,8.01,-22.63,-23.09,0,*7D
1507989991.96,13227,14.69,74602.8,8.01,-22.47,-23.09,0,*7A
1507989993.18,13228,14.69,74602.8,7.99,-22.37,-22.83,0,*7F
1507989994.44,13229,14.69,74604.8,7.99,-21.93,-22.31,0,*7A
1507989995.66,13230,14.69,74604.5,8.01,-22.03,-22.31,0,*76
1507989996.87,13231,14.69,74600.8,8.01,-22.41,-22.93,0,*79
1507989998.07,13232,14.69,74602.5,8.01,-22.63,-23.09,0,*78
1507989999.27,13233,14.69,74606.3,8.01,-22.63,-23.13,0,*72
1507990000.52,13234,14.69,74600.0,8.03,-22.11,-22.73,0,*75
1507990001.77,13235,14.69,74604.0,8.03,-21.77,-22.21,0,*70
1507990003.01,13236,14.69,74604.3,8.03,-22.11,-22.73,0,*77
1507990004.27,13237,14.69,74606.5,8.03,-22.11,-22.47,0,*71
1507990005.52,13238,14.69,74604.3,8.03,-22.11,-22.73,0,*79
1507990006.77,13239,14.69,74606.8,8.03,-21.97,-22.27,0,*74
1507990007.97,13240,14.69,74606.5,8.05,-21.77,-22.11,0,*77
1507990009.15,13241,14.75,74610.0,8.05,-22.07,-22.41,0,*77
1507990010.43,13242,14.69,74606.0,8.03,-22.73,-23.33,0,*75
1507990011.65,13243,14.69,74602.0,8.05,-22.11,-22.47,0,*74
1507990012.88,13244,14.69,74604.8,8.03,-22.07,-22.63,0,*74
1507990014.14,13245,14.69,74604.0,8.03,-22.57,-23.19,0,*7C
1507990015.39,13246,14.69,74608.3,8.03,-22.27,-22.77,0,*71
1507990016.68,13247,14.69,74604.0,8.03,-22.47,-23.23,0,*76
1507990017.9,13248,14.69,74602.0,8.03,-22.07,-22.63,0,*78
1507990019.09,13249,14.69,74606.8,8.05,-22.27,-22.87,0,*77
1507990020.28,13250,14.75,74604.5,8.05,-22.07,-22.41,0,*77
1507990021.55,13251,14.69,74604.0,8.07,-22.31,-22.73,0,*70
1507990022.75,13252,14.69,74604.8,8.05,-21.93,-22.63,0,*7B
1507990024.02,13253,14.69,74602.5,8.07,-22.21,-22.73,0,*73
1507990025.24,13254,14.69,74606.5,8.05,-22.63,-23.19,0,*7D
1507990026.46,13255,14.69,74602.5,8.07,-22.37,-22.97,0,*78
1507990027.66,13256,14.69,74604.5,8.05,-22.93,-23.59,0,*74
1507990028.89,13257,14.69,74602.0,8.03,-22.27,-22.93,0,*7B
1507990030.14,13258,14.75,74608.5,8.05,-22.21,-22.77,0,*7E
1507990031.37,13259,14.69,74606.3,8.03,-22.11,-22.63,0,*7F
1507990032.59,13260,14.75,74608.3,8.05,-22.07,-22.47,0,*72
1507990033.84,13261,14.75,74604.5,8.05,-22.21,-22.77,0,*74
1507990035.06,13262,14.69,74602.5,8.05,-22.11,-22.77,0,*74
1507990036.29,13263,14.69,74604.0,8.05,-22.77,-23.39,0,*7E
1507990037.54,13264,14.69,74600.8,8.05,-22.77,-23.49,0,*7E
1507990038.74,13265,14.75,74604.3,8.05,-22.27,-22.93,0,*7C
1507990039.96,13266,14.69,74604.0,8.05,-22.21,-22.87,0,*7C
1507990041.16,13267,14.69,74604.8,8.05,-22.41,-23.09,0,*7C
1507990042.36,13268,14.69,74600.0,8.05,-22.11,-22.63,0,*7B
1507990043.6,13269,14.69,74604.0,8.07,-21.73,-22.21,0,*79
1507990044.83,13270,14.69,74602.3,8.05,-22.21,-22.87,0,*7B
1507990046.08,13271,14.69,74600.3,8.07,-22.31,-22.97,0,*78
1507990047.33,13272,14.69,74604.8,8.07,-22.17,-22.83,0,*7A
1507990048.52,13273,14.69,74606.0,8.05,-22.93,-23.59,0,*73
1507990049.79,13274,14.69,74606.5,8.07,-22.21,-22.73,0,*76
1507990051.06,13275,14.69,74602.3,8.07,-22.73,-23.33,0,*75
1507990052.28,13276,14.75,74604.3,8.07,-22.41,-22.97,0,*78
1507990053.51,13277,14.69,74602.0,8.05,-22.41,-23.19,0,*7C
1507990054.73,13278,14.69,74604.0,8.05,-22.93,-23.53,0,*72
1507990055.93,13279,14.69,74604.0,8.05,-22.27,-22.93,0,*71
1507990057.12,13280,14.69,74606.8,8.05,-22.07,-22.87,0,*70
1507990058.32,13281,14.69,74600.0,8.05,-22.41,-23.09,0,*74
1507990059.54,13282,14.69,74606.5,8.05,-22.11,-22.77,0,*7A
1507990060.77,13283,14.69,74604.5,8.05,-22.57,-23.23,0,*79
1507990062.03,13284,14.69,74602.5,8.03,-22.57,-23.19,0,*71
1507990063.28,13285,14.69,74604.0,8.03,-22.41,-23.19,0,*77
1507990064.53,13286,14.69,74604.0,8.05,-22.47,-23.19,0,*74
1507990065.73,13287,14.69,74602.5,8.05,-22.27,-22.87,0,*75
1507990066.96,13288,14.69,74606.3,8.05,-22.37,-23.03,0,*76
1507990068.18,13289,14.69,74602.8,8.05,-22.41,-23.19,0,*7D
1507990069.38,13290,14.69,74604.5,8.05,-22.27,-22.93,0,*76
1507990070.58,13291,14.69,74606.5,8.05,-22.41,-23.09,0,*75
1507990071.82,13292,14.75,74606.3,8.03,-22.07,-22.73,0,*7E
1507990073.1,13293,14.69,74606.3,8.03,-22.47,-23.03,0,*7D
1507990074.32,13294,14.75,74606.5,8.05,-22.07,-22.73,0,*7E
1507990075.57,13295,14.75,74608.8,8.05,-22.47,-23.19,0,*76
1507990076.82,13296,14.69,74602.8,8.05,-22.21,-22.77,0,*7C
1507990078.05,13297,14.69,74604.3,8.05,-22.21,-22.93,0,*77
1507990079.3,13298,14.69,74608.0,8.05,-22.47,-23.23,0,*72
1507990080.53,13299,14.69,74610.8,8.05,-22.37,-23.03,0,*76
1507990081.78,13300,14.75,74610.0,8.03,-22.27,-23.03,0,*70
1507990083.01,13301,14.69,74606.5,8.03,-22.11,-22.93,0,*7C
1507990084.22,13302,14.75,74608.3,8.05,-21.97,-22.41,0,*7B
1507990085.45,13303,14.69,74606.3,8.03,-21.93,-22.63,0,*78
1507990086.71,13304,14.75,74606.3,8.07,-22.17,-22.97,0,*7F
1507990087.95,13305,14.75,74606.5,8.07,-22.21,-22.87,0,*7A
1507990089.2,13306,14.75,74604.8,8.07,-22.31,-22.97,0,*79
1507990090.42,13307,14.69,74604.5,8.07,-22.07,-22.87,0,*7C
1507990091.63,13308,14.69,74604.0,8.07,-22.07,-22.87,0,*73
1507990092.88,13309,14.69,74606.0,8.07,-22.37,-23.33,0,*7F
1507990094.12,13310,14.75,74608.8,8.07,-22.21,-23.13,0,*72
1507990095.37,13311,14.69,74604.5,8.07,-22.31,-22.97,0,*7F
1507990096.61,13312,14.75,74604.5,8.07,-22.83,-23.53,0,*7C
1507990097.84,13313,14.75,74604.3,8.03,-22.11,-22.93,0,*7F
1507990099.07,13314,14.69,74604.0,8.05,-22.27,-23.19,0,*78
1507990100.32,13315,14.69,74604.3,8.05,-22.47,-23.33,0,*77
1507990101.51,13316,14.69,74604.3,8.05,-22.11,-22.87,0,*79